This demonstration page uses our WeatherBlox Daily Observations layout. Learn more.

Left ArrowRight Arrow

39.29038, -76.61219

Hourly Observations for October 8, 2020

Temp ( °F °C ) Dew Point ( °F °C ) Humidity (%) Winds ( mph kmh ) Pressure ( in mb ) Visibility ( mi km ) Precip ( " mm )
12:54 am 00:54 Mostly Clear 60 15.6 52 11.1 75 75 W 3 6 29.87 1012 10 16 0.00 0.00
1:54 am 01:54 Partly Cloudy 58 14.4 51 10.6 78 78 Calm 29.90 1012 10 16 0.00 0.00
2:54 am 02:54 Mostly Clear 58 14.4 51 10.6 78 78 Calm 29.92 1013 10 16 0.00 0.00
3:54 am 03:54 Clear 57 13.9 49 9.4 74 74 WNW 5 7 29.94 1014 10 16 0.00 0.00
4:54 am 04:54 Clear 58 14.4 47 8.3 67 67 NW 7 11 29.96 1015 10 16 0.00 0.00
5:54 am 05:54 Clear 57 13.9 45 7.2 64 64 WNW 7 11 29.99 1016 10 16 0.00 0.00
6:54 am 06:54 Clear 54 12.2 44 6.7 69 69 WNW 7 11 30.01 1016 10 16 0.00 0.00
7:54 am 07:54 Mostly Sunny 55 12.8 46 7.8 72 72 W 7 11 30.04 1017 10 16 0.00 0.00
8:54 am 08:54 Mostly Sunny 61 16.1 44 6.7 54 54 WNW 8 13 30.06 1018 10 16 0.00 0.00
9:54 am 09:54 Mostly Sunny 65 18.3 43 6.1 45 45 NW 10 17 30.07 1018 10 16 0.00 0.00
10:54 am 10:54 Mostly Sunny 66 18.9 42 5.6 42 42 NW 13 20 30.06 1018 10 16 0.00 0.00
11:54 am 11:54 Partly Cloudy 68 20 44 6.7 42 42 WNW 14 22 30.06 1018 10 16 0.00 0.00
12:54 pm 12:54 Partly Cloudy 69 20.6 43 6.1 39 39 NW 16 26 30.06 1018 10 16 0.00 0.00
1:54 pm 13:54 Partly Cloudy 69 20.6 43 6.1 39 39 WNW 14 22 30.05 1018 10 16 0.00 0.00
2:54 pm 14:54 Partly Cloudy 71 21.7 43 6.1 36 36 WNW 13 20 30.04 1017 10 16 0.00 0.00
3:54 pm 15:54 Partly Cloudy 71 21.7 41 5 34 34 WNW 10 17 30.04 1017 10 16 0.00 0.00
4:54 pm 16:54 Partly Cloudy 70 21.1 40 4.4 34 34 NW 12 19 30.05 1018 10 16 0.00 0.00
5:54 pm 17:54 Sunny 67 19.4 41 5 39 39 NW 10 17 30.07 1018 10 16 0.00 0.00
6:54 pm 18:54 Mostly Clear 62 16.7 41 5 46 46 WNW 7 11 30.09 1019 10 16 0.00 0.00
7:54 pm 19:54 Clear 59 15 42 5.6 54 54 W 3 6 30.12 1020 10 16 0.00 0.00
8:54 pm 20:54 Clear 57 13.9 42 5.6 58 58 WSW 3 6 30.14 1021 10 16 0.00 0.00
9:54 pm 21:54 Clear 55 12.8 43 6.1 64 64 Calm 30.16 1021 10 16 0.00 0.00
10:54 pm 22:54 Clear 51 10.6 43 6.1 74 74 SW 3 6 30.18 1022 10 16 0.00 0.00
11:54 pm 23:54 Clear 52 11.1 43 6.1 72 72 WSW 5 7 30.18 1022 10 16 0.00 0.00

Powered by AerisWeather